Погода в Петропавловке

Украина / Харьковская область     50°09′38″N   37°08′35″E
темп.,
°C
ветер,
м/с
пор.,
м/с
влажн.,
%
обл.,
%
осадки,
мм/ч
давл.,
гПа
погр.,
м
15 апреля, чт
чт1500:00+11юз3687100 0.0 1014156
03:00+9юз36915 0.0 1014154
06:00+7ююз34895 0.0 101479
09:00+11ю466995 0.0 1015621
12:00+14ююв575483 0.0 10141501
15:00+14ю5659100 0.1 10131448
18:00+13юв4767100 0.7 1013870
21:00+8ю48893 1.3 1014310
16 апреля, пт
пт1600:00+7юв35885 0.0 1014115
03:00+6ююв49895 0.0 1015221
06:00+5ююв48935 0.0 1016243
09:00+9ююв567351 0.0 1016815
12:00+11ю566198 0.1 10171374
15:00+12ююв556092 0.2 10171163
18:00+12ю456178 0.2 10171061
21:00+9ю367742 0.5 1017139
17 апреля, сб
сб1700:00+7юз498997 0.0 1019279
03:00+6ююз228554 0.0 101813
06:00+5ю229124 0.0 101934
09:00+9ююз447224 0.0 1019495
12:00+12зюз545198 0.1 10191818
15:00+13зюз554498 0.1 10191986
18:00+11зсз2457100 0.1 1019533
21:00+8з376886 0.1 1021359
18 апреля, вс
вс1800:00+7з257682 0.0 1021232
03:00+6зсз368472 0.0 1020154
06:00+6ююз138497 0.0 1020197
09:00+8зюз347499 0.4 1020874
12:00+8з238099 1.0 1020460
15:00+11з345881 1.8 10191353
18:00+10сз3462100 0.1 1019361
21:00+8сз227017 0.1 101916
19 апреля, пн
пн1900:00+6ссз22875 0.0 102023
03:00+5с33895 0.0 102047
06:00+4с22915 0.0 102025
09:00+9ссв337017 0.0 1019519
12:00+13св445114 0.0 10181454
15:00+15св444194 0.0 10172162
18:00+12всв7106892 0.0 1018735
21:00+9всв612755 0.0 1017584